User: anonymous   Login
Location: Hepcat Sky Observatory
(29.9800°N, 95.6500°W)
Time: 18:33:40
(UTC-05:00)
Language:

Cosmos 2151 Rocket - Orbit

View from above orbital plane
View from above orbital plane
View from above satellite
View from above satellite

Ground track
Ground track

The orbit data is extracted from the following two-line orbital elements,

1 21423U 91042B   17228.65148487  .00000037  00000-0  18740-5 0  9996
2 21423  82.4920 264.9109 0018896  55.5377 304.7617 14.79699114411526
Epoch (UTC): 16 August 2017 15:38:08
Eccentricity: 0.0018896
inclination: 82.4920°
perigee height: 617 km
apogee height: 643 km
right ascension of ascending node: 264.9109°
argument of perigee: 55.5377°
revolutions per day: 14.79699114
mean anomaly at epoch: 304.7617°
orbit number at epoch: 41152

The dashed part of the orbit path shows where the satellite is in the earth's shadow,  

DLR